Hourly Data Report for June 30, 2008

HALIFAX STANFIELD INT'L A
NOVA SCOTIA

44°52'48.060" N
63°30'00.050" W
145.40 m
8202250
71395
YHZ

Download Data

Hourly Data (June 2008)
Hourly Data Report for June 30, 2008
TIME
LST
Temp Definition
°C
Dew Point Definition
°C
Rel Hum Definition
%
Precip. Amount Definition
mm

Wind Dir Definition
10's deg

Wind Spd Definition
km/h
Visibility Definition
km
Stn Press Definition
kPa
Hmdx Definition


Wind Chill Definition


Weather Definition


00:00 13.2 13.2 100   15 13 0.2 99.54     Drizzle, Fog
01:00 13.1 13.1 100   15 9 0.4 99.46     Drizzle, Fog
02:00 13.0 13.0 100   15 17 0.2 99.46     Drizzle, Fog
03:00 13.0 13.0 100   16 13 0.2 99.42     Drizzle, Fog
04:00 13.2 13.2 100   16 13 0.2 99.40     Drizzle, Fog
05:00 13.5 13.5 100   17 13 0.4 99.42     Fog
06:00 14.1 14.1 100   16 20 0.4 99.42     Fog
07:00 14.6 14.6 100   16 19 0.4 99.42     Fog
08:00 15.3 15.3 100   16 20 0.4 99.35     Fog
09:00 17.8 17.7 99   20 26 0.4 99.34     Fog
10:00 18.6 18.6 100   19 35 0.8 99.32     Fog
11:00 19.2 19.1 99   20 33 1.2 99.31     Fog
12:00 19.7 19.5 99   20 28 2.4 99.29     Fog
13:00 21.0 20.2 95   19 33 4.8 99.27 29   Fog
14:00 20.4 18.9 91   20 32 2.0 99.27 27   Fog
15:00 21.2 18.9 87   19 24 11.3 99.25 28   Mostly Cloudy
16:00 19.3 18.3 94   20 24 3.2 99.27     Fog
17:00 18.3 18.0 98   19 19 3.2 99.25     Rain Showers, Fog
18:00 19.0 18.7 98   20 24 1.2 99.29     Fog
19:00 18.0 17.7 98   18 22 0.2 99.27     Fog
20:00 17.0 16.8 99   18 20 0.2 99.31     Fog
21:00 16.8 16.6 99   19 24 0.2 99.32     Fog
22:00 16.7 16.5 99   19 30 0.4 99.34     Fog
23:00 16.8 16.7 99   19 26 0.4 99.32     Fog

Notes on Data Quality.

Legend

  • E = Estimated
  • M = Missing
  • NA = Not Available*
  • [empty] = Indicates an unobserved value
Date modified: